Tracking 30970 objects as of 3-Jul-2025
HD Live streaming from Space Station
objects crossing your sky now

ARIANE 3 DEB

Track ARIANE 3 DEB now!
10-day predictions


NORAD ID: 27740
Int'l Code: 1984-114E
Perigee: 262.0 km
Apogee: 1,915.6 km
Inclination: 6.7 °
Period: 106.9 minutes
Semi major axis: 7459 km
RCS: 18.1115 m2 (large)
Launch date: November 10, 1984
Source: France (FR)
Launch site: FRENCH GUIANA (FRGUI)

Note: This is SATELLITE DEBRIS
Your satellite tracking list
STARLINK-33837
Track 1 satellite(s)




NASA's NSSDC Master Catalog

Two Line Element Set (TLE):
1 27740U 84114E   25183.76374267  .00128251 -17652-4  14999-2 0  9998
2 27740   6.7234 323.7913 1108335 277.1750  70.3918 13.47445679 39372
Source of the keplerian elements: AFSPC